FW2438 Weather Reports


Display with metric or nautical units.
time (UTC)temp
F
wind
direction
speed
MPH
gust
MPH
rain 1hr
in
rain 24hr
in
rain mn
in
humidity
%
barometer
mb
20190320043836 64 311 4.0 9.0 0.00 0.99 0.00 93 1017.9
20190320042936 64 320 3.0 6.0 0.00 0.99 0.00 93 1018.0
20190320042036 64 14 2.0 4.0 0.00 1.00 0.00 93 1018.0
20190320041136 64 41 1.0 3.0 0.00 1.00 0.00 94 1017.8
20190320040236 64 59 1.0 3.0 0.00 1.00 0.00 93 1017.9
20190320035336 64 89 1.0 4.0 0.00 1.00 1.00 93 1017.6
20190320034436 64 74 1.0 3.0 0.00 1.00 1.00 93 1017.8
20190320033536 64 87 0.0 1.0 0.01 1.00 1.00 93 1017.9
20190320032636 64 85 0.0 1.0 0.03 1.00 1.00 93 1018.2
20190320031736 64 71 1.0 6.0 0.04 1.00 1.00 93 1018.1
20190320030836 64 82 2.0 8.0 0.05 1.00 1.00 93 1018.2
20190320025936 64 76 3.0 11.0 0.07 1.00 1.00 93 1018.2
20190320025036 64 76 4.0 12.0 0.08 1.00 1.00 92 1018.4
20190320024136 64 97 5.0 10.0 0.09 1.00 1.00 92 1018.4
20190320023236 64 32 3.0 11.0 0.08 0.99 0.99 92 1018.6
20190320022336 64 323 1.0 6.0 0.07 0.98 0.97 92 1018.7
20190320021436 64 333 2.0 5.0 0.06 0.96 0.95 92 1018.6
20190320020536 64 323 3.0 5.0 0.06 0.95 0.94 92 1018.6
20190320015636 64 319 3.0 8.0 0.07 0.94 0.93 91 1018.7
20190320014736 64 311 1.0 4.0 0.07 0.93 0.92 92 1018.8
20190320013836 64 0 0.0 0.0 0.07 0.92 0.91 91 1018.7
20190320012936 64 0 0.0 0.0 0.08 0.92 0.91 91 1018.5
20190320012036 64 0 0.0 0.0 0.08 0.91 0.90 90 1018.7
20190320011136 64 113 1.0 3.0 0.08 0.90 0.89 90 1018.5
20190320010236 64 121 2.0 4.0 0.06 0.88 0.87 89 1018.5
20190320005336 64 72 1.0 4.0 0.05 0.87 0.86 89 1018.3
20190320004436 64 39 1.0 3.0 0.03 0.85 0.84 89 1018.2
20190320003536 64 56 2.0 6.0 0.02 0.84 0.83 88 1018.1
20190320002636 64 75 3.0 9.0 0.01 0.83 0.82 88 1017.7
20190320001736 64 79 4.0 8.0 0.01 0.83 0.82 87 1017.6
20190320000836 64 83 3.0 8.0 0.00 0.82 0.81 87 1017.6
20190319235936 64 98 3.0 9.0 0.01 0.82 0.81 86 1017.6
20190319235036 64 110 4.0 9.0 0.02 0.82 0.81 86 1017.6
20190319234136 64 113 5.0 12.0 0.02 0.82 0.81 86 1017.5
20190319233236 64 123 5.0 9.0 0.03 0.82 0.81 86 1017.6
20190319232336 64 106 4.0 10.0 0.04 0.82 0.81 86 1017.6
20190319231436 64 99 6.0 15.0 0.04 0.82 0.81 86 1017.4
20190319230536 64 93 6.0 14.0 0.04 0.81 0.80 87 1017.8
20190319225636 64 71 5.0 11.0 0.04 0.81 0.80 86 1017.8
20190319224736 65 44 5.0 12.0 0.03 0.80 0.79 86 1017.8
20190319223836 65 58 6.0 14.0 0.03 0.80 0.79 85 1017.8
20190319222936 66 32 6.0 14.0 0.02 0.79 0.78 83 1017.9
20190319222036 66 52 5.0 13.0 0.01 0.78 0.77 80 1017.9
20190319221136 67 70 5.0 10.0 0.01 0.78 0.77 78 1017.7
20190319220236 67 76 3.0 8.0 0.00 0.77 0.76 78 1017.6
20190319215336 67 89 4.0 12.0 0.00 0.77 0.76 76 1017.6
20190319214436 67 76 4.0 10.0 0.00 0.77 0.76 77 1017.7
20190319213536 67 92 4.0 8.0 0.00 0.77 0.76 77 1017.7
20190319212636 67 88 4.0 11.0 0.00 0.77 0.76 77 1017.5
20190319211736 67 88 3.0 8.0 0.00 0.77 0.76 78 1017.5
20190319210836 67 96 5.0 11.0 0.00 0.77 0.76 78 1017.6
20190319205936 67 107 5.0 12.0 0.00 0.77 0.76 78 1017.4
20190319205036 67 102 6.0 12.0 0.00 0.77 0.76 78 1017.3
20190319204136 67 87 6.0 12.0 0.00 0.77 0.76 78 1017.4
20190319203236 67 96 6.0 13.0 0.00 0.77 0.76 79 1017.4
20190319202336 67 89 7.0 13.0 0.00 0.77 0.76 80 1017.6
20190319201436 67 90 6.0 13.0 0.00 0.77 0.76 78 1017.6
20190319200536 66 98 7.0 13.0 0.00 0.77 0.76 78 1017.7
20190319195636 66 86 7.0 14.0 0.00 0.77 0.76 81 1017.8
20190319194736 66 74 6.0 15.0 0.00 0.77 0.76 81 1017.8
20190319193836 66 84 7.0 16.0 0.00 0.77 0.76 81 1018.0
20190319192936 66 81 6.0 16.0 0.00 0.77 0.76 82 1017.9
20190319192036 66 82 7.0 13.0 0.00 0.77 0.76 83 1017.9
20190319191136 66 93 7.0 14.0 0.00 0.77 0.76 85 1018.2
20190319190236 66 82 8.0 15.0 0.00 0.77 0.76 83 1018.0
20190319185336 66 90 9.0 20.0 0.00 0.77 0.76 85 1018.2
20190319184436 66 102 9.0 18.0 0.00 0.77 0.76 85 1017.9
20190319183536 65 106 10.0 20.0 0.00 0.77 0.76 86 1017.8
20190319182636 65 104 9.0 18.0 0.00 0.77 0.76 87 1018.2
20190319181736 65 105 8.0 17.0 0.00 0.77 0.76 87 1018.8
20190319180836 64 99 9.0 17.0 0.00 0.77 0.76 87 1019.0
20190319175936 64 98 9.0 18.0 0.00 0.77 0.76 87 1019.0
20190319175036 64 96 11.0 20.0 0.00 0.77 0.76 87 1018.9
20190319174136 64 100 9.0 20.0 0.01 0.77 0.76 87 1019.1
20190319173236 64 97 9.0 20.0 0.01 0.77 0.76 87 1019.4
20190319172335 64 94 9.0 18.0 0.03 0.77 0.76 87 1019.9
20190319171436 64 101 10.0 21.0 0.05 0.77 0.76 87 1019.6
20190319170536 63 96 9.0 20.0 0.07 0.77 0.76 89 1019.5
20190319165636 63 93 9.0 17.0 0.08 0.77 0.76 90 1019.7
20190319164736 62 88 9.0 17.0 0.09 0.77 0.76 90 1020.0
20190319163836 62 89 8.0 17.0 0.10 0.76 0.75 90 1019.8
20190319162935 62 86 7.0 17.0 0.11 0.75 0.74 90 1020.1
20190319162036 62 77 8.0 17.0 0.10 0.73 0.72 89 1020.1
20190319161135 62 82 9.0 19.0 0.09 0.71 0.70 90 1020.1
20190319160235 62 80 8.0 18.0 0.09 0.70 0.69 90 1020.1
20190319155335 62 72 9.0 20.0 0.09 0.68 0.67 90 1020.5
20190319154435 62 72 8.0 19.0 0.09 0.67 0.66 91 1020.5
20190319153535 62 62 9.0 23.0 0.09 0.66 0.65 91 1020.6
20190319152635 62 61 9.0 21.0 0.09 0.64 0.63 90 1020.6
20190319151735 62 60 11.0 20.0 0.09 0.63 0.62 90 1020.4
20190319150836 62 46 10.0 18.0 0.08 0.61 0.60 90 1020.4
20190319145936 63 51 10.0 18.0 0.09 0.60 0.59 91 1020.3
20190319145035 63 52 10.0 22.0 0.10 0.59 0.58 91 1020.1
20190319144135 63 61 9.0 22.0 0.10 0.58 0.57 91 1019.9
20190319143235 63 72 8.0 19.0 0.09 0.56 0.56 92 1020.0
20190319142336 63 64 9.0 17.0 0.09 0.54 0.54 91 1020.0
20190319141435 63 68 7.0 17.0 0.09 0.53 0.52 91 1020.0
20190319140535 63 64 6.0 15.0 0.10 0.52 0.51 91 1020.0
20190319135635 63 60 7.0 16.0 0.09 0.50 0.49 90 1020.0
20190319134736 62 61 7.0 18.0 0.09 0.49 0.48 90 1019.9
20190319133836 62 70 8.0 19.0 0.10 0.48 0.47 90 1019.7
20190319132936 63 69 9.0 18.0 0.10 0.46 0.45 90 1019.7
20190319132036 63 66 9.0 15.0 0.10 0.45 0.44 90 1019.7
20190319131135 63 49 7.0 15.0 0.08 0.43 0.42 90 1019.7
20190319130235 63 38 9.0 16.0 0.08 0.42 0.41 89 1019.8
20190319125335 63 53 9.0 18.0 0.07 0.41 0.40 90 1019.8
20190319124435 63 53 9.0 18.0 0.05 0.39 0.38 90 1019.4
20190319123535 63 45 10.0 18.0 0.04 0.37 0.36 90 1019.3
20190319122635 63 43 10.0 19.0 0.02 0.35 0.34 90 1019.2
20190319121735 63 38 9.0 21.0 0.03 0.35 0.34 90 1018.9
20190319120835 63 41 10.0 21.0 0.03 0.35 0.34 90 1018.8
20190319115936 63 36 10.0 19.0 0.03 0.34 0.33 90 1018.6
20190319115035 63 36 9.0 20.0 0.03 0.34 0.33 90 1018.4
20190319114135 63 26 10.0 20.0 0.03 0.34 0.33 90 1018.2
20190319113235 63 27 10.0 20.0 0.04 0.33 0.32 90 1018.1
20190319112335 63 21 11.0 22.0 0.05 0.33 0.32 90 1018.0
20190319111435 63 28 10.0 22.0 0.04 0.32 0.31 90 1018.0
20190319110535 63 29 10.0 20.0 0.04 0.31 0.30 90 1018.2
20190319105635 63 36 9.0 18.0 0.05 0.31 0.30 90 1018.2
20190319104735 63 34 8.0 18.0 0.05 0.31 0.30 90 1018.0
20190319103835 63 38 8.0 15.0 0.05 0.30 0.29 90 1017.9
20190319102935 63 45 7.0 16.0 0.04 0.29 0.28 90 1018.0
20190319102035 63 30 6.0 14.0 0.04 0.28 0.27 89 1018.0
20190319101135 63 41 6.0 14.0 0.03 0.27 0.26 88 1018.0
20190319100235 63 53 8.0 17.0 0.02 0.26 0.25 87 1018.0
20190319095335 63 56 7.0 14.0 0.02 0.26 0.25 87 1017.9
20190319094435 63 57 7.0 16.0 0.02 0.25 0.24 88 1017.9
20190319093535 63 59 7.0 15.0 0.02 0.25 0.24 88 1017.9
20190319092635 63 32 7.0 18.0 0.03 0.25 0.24 87 1017.9
20190319091735 63 33 7.0 15.0 0.02 0.24 0.23 87 1017.8
20190319090835 63 34 7.0 15.0 0.02 0.24 0.23 87 1017.8
20190319085935 63 34 8.0 15.0 0.02 0.24 0.23 88 1017.6
20190319085035 64 51 7.0 15.0 0.02 0.23 0.22 90 1017.5
20190319084135 63 38 8.0 15.0 0.03 0.23 0.22 89 1017.6
20190319083235 64 40 7.0 17.0 0.03 0.23 0.22 89 1017.6
20190319082335 63 27 8.0 19.0 0.03 0.22 0.21 90 1017.4
20190319081435 63 23 10.0 18.0 0.03 0.22 0.21 90 1017.2
20190319080535 64 21 10.0 18.0 0.04 0.22 0.21 90 1017.3
20190319075635 64 25 8.0 17.0 0.04 0.21 0.20 90 1017.5
20190319074735 64 26 9.0 18.0 0.06 0.21 0.20 90 1017.7
20190319073835 64 39 8.0 18.0 0.07 0.20 0.19 90 1017.9
20190319072935 64 24 8.0 17.0 0.08 0.20 0.19 90 1018.0
20190319072035 64 23 8.0 18.0 0.09 0.19 0.18 90 1018.4
20190319071135 64 16 9.0 23.0 0.10 0.19 0.18 89 1018.6
20190319070235 64 20 10.0 19.0 0.11 0.18 0.17 89 1018.6
20190319065335 64 20 9.0 19.0 0.11 0.16 0.15 89 1018.6
20190319064435 64 24 8.0 16.0 0.11 0.15 0.14 88 1018.9
20190319063535 64 26 8.0 17.0 0.10 0.13 0.12 89 1019.0
20190319062635 65 23 7.0 16.0 0.08 0.11 0.11 88 1019.2
20190319061735 65 12 8.0 16.0 0.07 0.10 0.09 87 1019.3
20190319060835 66 2 8.0 16.0 0.05 0.08 0.07 87 1019.2
20190319055935 66 4 8.0 16.0 0.04 0.07 0.06 86 1019.3
20190319055035 66 13 7.0 16.0 0.02 0.04 0.03 85 1019.2
20190319054135 66 8 7.0 13.0 0.02 0.04 0.03 85 1019.1
20190319053235 66 8 6.0 13.0 0.01 0.03 0.02 85 1019.0
20190319052335 66 17 8.0 17.0 0.02 0.03 0.02 85 1018.9
20190319051435 66 14 8.0 16.0 0.02 0.03 0.02 85 1018.8
20190319050535 67 15 9.0 18.0 0.02 0.03 0.02 85 1018.7
20190319045635 67 15 7.0 18.0 0.01 0.02 0.01 86 1018.8
20190319044735 67 13 7.0 14.0 0.01 0.02 0.01 85 1018.8